Time,TemperatureF,DewpointF,PressureIn,WindDirection,WindDirectionDegrees,WindSpeedMPH,WindSpeedGustMPH,Humidity,HourlyPrecipIn,Conditions,Clouds,dailyrainin,SoftwareType,DateUTC
2017-02-24 00:04:00,32.2,30.9,29.63,NNE,22,15.5,-999.0,95,-99.99,,,0.00,,2017-02-24 06:04:00,
2017-02-24 00:12:00,32.2,30.9,29.63,East,90,17.6,-999.0,95,-99.99,,,0.00,,2017-02-24 06:12:00,
2017-02-24 00:19:00,32.2,30.9,29.63,ENE,67,18.6,-999.0,95,-99.99,,,0.00,,2017-02-24 06:19:00,
2017-02-24 00:28:00,32.0,30.7,29.58,NE,45,18.6,-999.0,95,-99.99,,,0.01,,2017-02-24 06:28:00,
2017-02-24 00:33:00,32.0,30.7,29.55,ENE,67,14.0,-999.0,95,-99.99,,,0.01,,2017-02-24 06:33:00,
2017-02-24 00:41:00,32.0,30.7,29.55,NE,45,13.5,-999.0,95,-99.99,,,0.01,,2017-02-24 06:41:00,
2017-02-24 00:48:00,32.0,30.7,29.54,NE,45,16.1,-999.0,95,-99.99,,,0.01,,2017-02-24 06:48:00,
2017-02-24 00:57:00,32.0,30.7,29.52,NNE,22,17.1,-999.0,95,-99.99,,,0.01,,2017-02-24 06:57:00,
2017-02-24 01:03:00,32.0,30.7,29.52,NE,45,13.0,-999.0,95,-99.99,,,0.01,,2017-02-24 07:03:00,
2017-02-24 01:09:00,31.8,30.5,29.58,ENE,67,18.1,-999.0,95,-99.99,,,0.01,,2017-02-24 07:09:00,
2017-02-24 01:20:00,31.8,30.5,29.58,NE,45,14.0,-999.0,95,-99.99,,,0.01,,2017-02-24 07:20:00,
2017-02-24 01:28:00,31.8,30.5,29.55,NNE,22,17.6,-999.0,95,-99.99,,,0.01,,2017-02-24 07:28:00,
2017-02-24 01:35:00,31.8,30.5,29.56,NE,45,15.5,-999.0,95,-99.99,,,0.01,,2017-02-24 07:35:00,
2017-02-24 01:43:00,31.8,30.5,29.61,NNE,22,7.8,20.2,95,-99.99,,,0.01,,2017-02-24 07:43:00,
2017-02-24 01:49:00,31.8,30.5,29.61,NE,45,8.3,-999.0,95,-99.99,,,0.01,,2017-02-24 07:49:00,
2017-02-24 01:55:00,31.8,30.8,29.64,NNE,22,9.9,-999.0,96,-99.99,,,0.01,,2017-02-24 07:55:00,
2017-02-24 02:02:00,31.8,30.8,29.64,NE,45,11.9,-999.0,96,-99.99,,,0.01,,2017-02-24 08:02:00,
2017-02-24 02:08:00,31.8,30.8,29.66,NNE,22,6.8,-999.0,96,-99.99,,,0.01,,2017-02-24 08:08:00,
2017-02-24 02:14:00,31.8,30.8,29.66,NNE,22,8.9,-999.0,96,-99.99,,,0.01,,2017-02-24 08:14:00,
2017-02-24 02:20:00,31.8,30.8,29.68,NNE,22,10.4,-999.0,96,-99.99,,,0.01,,2017-02-24 08:20:00,
2017-02-24 02:25:00,31.6,30.6,29.68,NNE,22,8.9,-999.0,96,-99.99,,,0.01,,2017-02-24 08:25:00,
2017-02-24 02:28:00,31.6,30.6,29.66,NE,45,10.4,-999.0,96,-99.99,,,0.01,,2017-02-24 08:28:00,
2017-02-24 02:34:00,31.6,30.8,29.66,NE,45,11.4,-999.0,97,-99.99,,,0.01,,2017-02-24 08:34:00,
2017-02-24 02:39:00,31.5,30.7,29.64,NE,45,6.8,-999.0,97,-99.99,,,0.01,,2017-02-24 08:39:00,
2017-02-24 02:44:00,31.1,30.3,29.64,North,360,9.9,-999.0,97,-99.99,,,0.01,,2017-02-24 08:44:00,
2017-02-24 02:50:00,30.9,30.1,29.64,NNE,22,8.3,-999.0,97,-99.99,,,0.01,,2017-02-24 08:50:00,
2017-02-24 02:55:00,30.7,29.9,29.63,NNW,337,9.4,-999.0,97,-99.99,,,0.01,,2017-02-24 08:55:00,
2017-02-24 03:00:00,30.6,29.9,29.63,NNW,337,10.4,-999.0,97,-99.99,,,0.01,,2017-02-24 09:00:00,
2017-02-24 03:05:00,30.4,29.7,29.63,NNW,337,10.4,-999.0,97,-99.99,,,0.01,,2017-02-24 09:05:00,
2017-02-24 03:11:00,30.2,29.5,29.63,NNE,22,9.4,-999.0,97,-99.99,,,0.01,,2017-02-24 09:11:00,
2017-02-24 03:16:00,30.0,29.3,29.60,NNE,22,8.3,-999.0,97,-99.99,,,0.01,,2017-02-24 09:16:00,
2017-02-24 03:22:00,29.8,29.1,29.60,North,360,13.5,-999.0,97,-99.99,,,0.01,,2017-02-24 09:22:00,
2017-02-24 03:27:00,29.7,29.0,29.58,NNE,22,12.5,-999.0,97,-99.99,,,0.01,,2017-02-24 09:27:00,
2017-02-24 03:32:00,29.7,29.0,29.58,NE,45,13.5,-999.0,97,-99.99,,,0.01,,2017-02-24 09:32:00,
2017-02-24 03:38:00,29.3,28.6,29.58,NE,45,10.9,-999.0,97,-99.99,,,0.01,,2017-02-24 09:38:00,
2017-02-24 03:43:00,29.3,28.6,29.58,NE,45,10.4,-999.0,97,-99.99,,,0.01,,2017-02-24 09:43:00,
2017-02-24 03:48:00,29.1,28.1,29.58,North,360,10.9,-999.0,96,-99.99,,,0.01,,2017-02-24 09:48:00,
2017-02-24 03:53:00,29.1,28.1,29.58,NNE,22,16.1,-999.0,96,-99.99,,,0.01,,2017-02-24 09:53:00,
2017-02-24 03:59:00,28.9,27.9,29.58,NNE,22,9.4,-999.0,96,-99.99,,,0.01,,2017-02-24 09:59:00,
2017-02-24 04:04:00,28.9,27.6,29.58,NE,45,9.4,-999.0,95,-99.99,,,0.01,,2017-02-24 10:04:00,
2017-02-24 04:09:00,28.9,27.6,29.58,NE,45,14.5,-999.0,95,-99.99,,,0.01,,2017-02-24 10:09:00,
2017-02-24 04:15:00,28.8,27.5,29.58,NNE,22,11.9,-999.0,95,-99.99,,,0.01,,2017-02-24 10:15:00,
2017-02-24 04:20:00,28.8,27.5,29.58,NNE,22,12.5,-999.0,95,-99.99,,,0.01,,2017-02-24 10:20:00,
2017-02-24 04:26:00,28.8,27.5,29.58,NE,45,13.5,-999.0,95,-99.99,,,0.01,,2017-02-24 10:26:00,
2017-02-24 04:31:00,28.6,27.4,29.58,NE,45,11.9,-999.0,95,-99.99,,,0.01,,2017-02-24 10:31:00,
2017-02-24 04:36:00,28.6,27.4,29.58,NE,45,9.4,-999.0,95,-99.99,,,0.01,,2017-02-24 10:36:00,